Location: Lansingburgh
(42.7845°N, 73.6696°W)
Time: 08:47:59
(UTC+00:00)

BlueWalker 3 - Pass Details

Date: 12 October 2024
Orbit: 470 x 481 km, 53.2° (Epoch: 11 November)

Event Time Altitude Azimuth Distance (km) Brightness Sun altitude
Exits shadow 08:08:22 11° 41° (NE) 1,545 5.1 -32.7°
Drops below altitude 10° 08:08:37 10° 42° (NE) 1,633 5.2 -32.6°
Sets 08:10:52 0° 51° (NE) 2,512 6.5 -32.2°
